Volver al catálogo

STARLINK-5469

ActivoComunicacionesVLEO
NORAD 55649·PAYLOAD·🇺🇸 United States

Lanzado Feb 17, 2023 desde Vandenberg Space Force Base

Loading…

Próximos Pases (próximas 24 horas)

TLE

ActualizadoSource: CelesTrak SupGP

Época: Sep 15, 2026, 02:33 UTC

1 55649C 23021X   26258.10673611 -.00053375  00000+0 -44734-2 0  2581
2 55649  70.0011  66.7770 0002742 269.5271 192.8364 14.98355106    16

Sigue STARLINK-5469 en tiempo real con AllMySat

Download on the App Store